Location: L�beck
(53.8752°N, 10.6787°E)
Time: 04:39:30
(UTC+01:00)

ISS - Pass Details

Date: 09 January 2018
Orbit: 402 x 407 km, 51.6° (Epoch: 18 January)

Event Time Altitude Azimuth Distance (km) Brightness Sun altitude
Exits shadow 07:21:27 11° 263° (W) 1,426 -1.6 -9.7°
Maximum altitude 07:24:04 25° 208° (SSW) 878 -2.2 -9.4°
Drops below altitude 10° 07:26:48 10° 151° (SSE) 1,466 -0.1 -9.0°
Sets 07:29:06 0° 137° (SE) 2,324 1.5 -8.7°
